Kezdőlap
METAR-TAF:

METAR-TAF

Repülőterek :

Hutchinson County Airport

Borger, Texas, Amerikai Egyesült Államok

földrajzi szélesség: 35-41-42N, földrajzi hosszúság: 101-23-42W, magasság: 931 m

Jelenlegi meteorológiai megfigyelések

A jelentés 1 órával és 4 perccel ezelõtt készült, 01:51 UTC
Dél-délkeleti szél 9 kt széllökések: 16 kt
Hőmérséklet 26°C
Páratartalom 74%
Légköri nyomás 1018 hPa
Látótávolság: 16.1 km
Derült ég

METAR: KBGD 220151Z AUTO 16009G16KT 10SM CLR 26/21 A3007 RMK AO2 SLP141 T02610206

Idő: 21:55 (02:55 UTC)


TAF: hiányzik

Meteorológiai megfigyelések és előrejelzések több, mint 4000 repülőtéren (METAR és TAF jelentéseket).

A térképen piros és sárga pontok jelzik az elérhető meteorológiai állomásokat.

Mozgassa az egeret a pont fölött, hogy megjelenjen az állomás neve.

Azután kattintson az időjárási megfigyelések és előrejelzések megtekintéséhez.

A térkép megváltoztatása: kattintson a fekete keresztel jelölt zöld gombra ráközelítéshez, a vonallal jelölt zöld gombra távolításhoz, vagy a zöld nyilakra a szomszédos térképek eléréséhez.


METAR-TAF: